Year,Month,Day,Hour,Minute,Value (Times are PST for temperature in C)
2009,04,03,00,00,5.70
2009,04,03,00,01,5.70
2009,04,03,00,02,5.70
2009,04,03,00,03,5.70
2009,04,03,00,04,5.60
2009,04,03,00,05,5.60
2009,04,03,00,06,5.60
2009,04,03,00,07,5.60
2009,04,03,00,08,5.60
2009,04,03,00,09,5.60
2009,04,03,00,10,5.60
2009,04,03,00,11,5.60
2009,04,03,00,12,5.60
2009,04,03,00,13,5.60
2009,04,03,00,14,5.60
2009,04,03,00,15,5.60
2009,04,03,00,16,5.60
2009,04,03,00,17,5.60
2009,04,03,00,18,5.60
2009,04,03,00,19,5.60
2009,04,03,00,20,5.60
2009,04,03,00,21,5.60
2009,04,03,00,22,5.60
2009,04,03,00,23,5.60
2009,04,03,00,24,5.60
2009,04,03,00,25,5.60
2009,04,03,00,26,5.70
2009,04,03,00,27,5.60
2009,04,03,00,28,5.70
2009,04,03,00,29,5.70
2009,04,03,00,30,5.70
2009,04,03,00,31,5.70
2009,04,03,00,32,5.70
2009,04,03,00,33,5.70
2009,04,03,00,34,5.70
2009,04,03,00,35,5.70
2009,04,03,00,36,5.70
2009,04,03,00,37,5.70
2009,04,03,00,38,5.70
2009,04,03,00,39,5.70
2009,04,03,00,40,5.70
2009,04,03,00,41,5.70
2009,04,03,00,42,5.70
2009,04,03,00,43,5.70
2009,04,03,00,44,5.60
2009,04,03,00,45,5.60
2009,04,03,00,46,5.60
2009,04,03,00,47,5.60
2009,04,03,00,48,5.60
2009,04,03,00,49,5.60
2009,04,03,00,50,5.60
2009,04,03,00,51,5.60
2009,04,03,00,52,5.60
2009,04,03,00,53,5.60
2009,04,03,00,54,5.50
2009,04,03,00,55,5.50
2009,04,03,00,56,5.50
2009,04,03,00,57,5.50
2009,04,03,00,58,5.50
2009,04,03,00,59,5.50
2009,04,03,01,00,5.50
2009,04,03,01,01,5.50
2009,04,03,01,02,5.50
2009,04,03,01,03,5.50
2009,04,03,01,04,5.50
2009,04,03,01,05,5.40
2009,04,03,01,06,5.40
2009,04,03,01,07,5.40
2009,04,03,01,08,5.40
2009,04,03,01,09,5.40
2009,04,03,01,10,5.40
2009,04,03,01,11,5.40
2009,04,03,01,12,5.40
2009,04,03,01,13,5.40
2009,04,03,01,14,5.40
2009,04,03,01,15,5.40
2009,04,03,01,16,5.40
2009,04,03,01,17,5.40
2009,04,03,01,18,5.40
2009,04,03,01,19,5.40
2009,04,03,01,20,5.40
2009,04,03,01,21,5.40
2009,04,03,01,22,5.40
2009,04,03,01,23,5.40
2009,04,03,01,24,5.40
2009,04,03,01,25,5.40
2009,04,03,01,26,5.40
2009,04,03,01,27,5.40
2009,04,03,01,28,5.40
2009,04,03,01,29,5.40
2009,04,03,01,30,5.40
2009,04,03,01,31,5.40
2009,04,03,01,32,5.40
2009,04,03,01,33,5.40
2009,04,03,01,34,5.40
2009,04,03,01,35,5.40
2009,04,03,01,36,5.40
2009,04,03,01,37,5.40
2009,04,03,01,38,5.40
2009,04,03,01,39,5.40
2009,04,03,01,40,5.30
2009,04,03,01,41,5.30
2009,04,03,01,42,5.30
2009,04,03,01,43,5.30
2009,04,03,01,44,5.30
2009,04,03,01,45,5.30
2009,04,03,01,46,5.20
2009,04,03,01,47,5.20
2009,04,03,01,48,5.30
2009,04,03,01,49,5.30
2009,04,03,01,50,5.30
2009,04,03,01,51,5.30
2009,04,03,01,52,5.30
2009,04,03,01,53,5.30
2009,04,03,01,54,5.30
2009,04,03,01,55,5.30
2009,04,03,01,56,5.30
2009,04,03,01,57,5.30
2009,04,03,01,58,5.30
2009,04,03,01,59,5.30
2009,04,03,02,00,5.30
2009,04,03,02,01,5.30
2009,04,03,02,02,5.30
2009,04,03,02,03,5.30
2009,04,03,02,04,5.30
2009,04,03,02,05,5.30
2009,04,03,02,06,5.30
2009,04,03,02,07,5.30
2009,04,03,02,08,5.30
2009,04,03,02,09,5.30
2009,04,03,02,10,5.20
2009,04,03,02,11,5.20
2009,04,03,02,12,5.20
2009,04,03,02,13,5.20
2009,04,03,02,14,5.20
2009,04,03,02,15,5.20
2009,04,03,02,16,5.20
2009,04,03,02,17,5.20
2009,04,03,02,18,5.10
2009,04,03,02,19,5.10
2009,04,03,02,20,5.20
2009,04,03,02,21,5.20
2009,04,03,02,22,5.20
2009,04,03,02,23,5.10
2009,04,03,02,24,5.10
2009,04,03,02,25,5.20
2009,04,03,02,26,5.20
2009,04,03,02,27,5.10
2009,04,03,02,28,5.10
2009,04,03,02,29,5.10
2009,04,03,02,30,5.10
2009,04,03,02,31,5.10
2009,04,03,02,32,5.10
2009,04,03,02,33,5.10
2009,04,03,02,34,5.10
2009,04,03,02,35,5.10
2009,04,03,02,36,5.10
2009,04,03,02,37,5.10
2009,04,03,02,38,5.10
2009,04,03,02,39,5.10
2009,04,03,02,40,5.10
2009,04,03,02,41,5.10
2009,04,03,02,42,5.10
2009,04,03,02,43,5.10
2009,04,03,02,44,5.10
2009,04,03,02,45,5.10
2009,04,03,02,46,5.00
2009,04,03,02,47,5.00
2009,04,03,02,48,5.00
2009,04,03,02,49,5.00
2009,04,03,02,50,5.00
2009,04,03,02,51,5.00
2009,04,03,02,52,5.00
2009,04,03,02,53,5.00
2009,04,03,02,54,5.00
2009,04,03,02,55,5.00
2009,04,03,02,56,5.00
2009,04,03,02,57,5.00
2009,04,03,02,58,4.90
2009,04,03,02,59,4.90
2009,04,03,03,00,4.90
2009,04,03,03,01,4.90
2009,04,03,03,02,4.90
2009,04,03,03,03,4.90
2009,04,03,03,04,4.90
2009,04,03,03,05,4.90
2009,04,03,03,06,4.90
2009,04,03,03,07,4.90
2009,04,03,03,08,4.80
2009,04,03,03,09,4.90
2009,04,03,03,10,4.90
2009,04,03,03,11,4.90
2009,04,03,03,12,4.90
2009,04,03,03,13,4.90
2009,04,03,03,14,4.90
2009,04,03,03,15,4.90
2009,04,03,03,16,4.90
2009,04,03,03,17,4.90
2009,04,03,03,18,4.90
2009,04,03,03,19,4.80
2009,04,03,03,20,4.80
2009,04,03,03,21,4.80
2009,04,03,03,22,4.80
2009,04,03,03,23,4.80
2009,04,03,03,24,4.80
2009,04,03,03,25,4.80
2009,04,03,03,26,4.80
2009,04,03,03,27,4.70
2009,04,03,03,28,4.80
2009,04,03,03,29,4.80
2009,04,03,03,30,4.80
2009,04,03,03,31,4.80
2009,04,03,03,32,4.80
2009,04,03,03,33,4.80
2009,04,03,03,34,4.80
2009,04,03,03,35,4.80
2009,04,03,03,36,4.80
2009,04,03,03,37,4.80
2009,04,03,03,38,4.80
2009,04,03,03,39,4.80
2009,04,03,03,40,4.80
2009,04,03,03,41,4.80
2009,04,03,03,42,4.80
2009,04,03,03,43,4.80
2009,04,03,03,44,4.80
2009,04,03,03,45,4.80
2009,04,03,03,46,4.80
2009,04,03,03,47,4.80
2009,04,03,03,48,4.80
2009,04,03,03,49,4.70
2009,04,03,03,50,4.70
2009,04,03,03,51,4.70
2009,04,03,03,52,4.70
2009,04,03,03,53,4.70
2009,04,03,03,54,4.70
2009,04,03,03,55,4.70
2009,04,03,03,56,4.70
2009,04,03,03,57,4.70
2009,04,03,03,58,4.70
2009,04,03,03,59,4.70
2009,04,03,04,00,4.70
2009,04,03,04,01,4.70
2009,04,03,04,02,4.70
2009,04,03,04,03,4.70
2009,04,03,04,04,4.70
2009,04,03,04,05,4.70
2009,04,03,04,06,4.70
2009,04,03,04,07,4.70
2009,04,03,04,08,4.60
2009,04,03,04,09,4.60
2009,04,03,04,10,4.60
2009,04,03,04,11,4.60
2009,04,03,04,12,4.60
2009,04,03,04,13,4.60
2009,04,03,04,14,4.60
2009,04,03,04,15,4.60
2009,04,03,04,16,4.60
2009,04,03,04,17,4.60
2009,04,03,04,18,4.60
2009,04,03,04,19,4.60
2009,04,03,04,20,4.60
2009,04,03,04,21,4.60
2009,04,03,04,22,4.60
2009,04,03,04,23,4.60
2009,04,03,04,24,4.60
2009,04,03,04,25,4.60
2009,04,03,04,26,4.60
2009,04,03,04,27,4.60
2009,04,03,04,28,4.60
2009,04,03,04,29,4.60
2009,04,03,04,30,4.60
2009,04,03,04,31,4.60
2009,04,03,04,32,4.60
2009,04,03,04,33,4.60
2009,04,03,04,34,4.60
2009,04,03,04,35,4.60
2009,04,03,04,36,4.60
2009,04,03,04,37,4.60
2009,04,03,04,38,4.60
2009,04,03,04,39,4.60
2009,04,03,04,40,4.60
2009,04,03,04,41,4.60
2009,04,03,04,42,4.60
2009,04,03,04,43,4.60
2009,04,03,04,44,4.60
2009,04,03,04,45,4.60
2009,04,03,04,46,4.60
2009,04,03,04,47,4.60
2009,04,03,04,48,4.60
2009,04,03,04,49,4.60
2009,04,03,04,50,4.60
2009,04,03,04,51,4.50
2009,04,03,04,52,4.50
2009,04,03,04,53,4.50
2009,04,03,04,54,4.50
2009,04,03,04,55,4.50
2009,04,03,04,56,4.50
2009,04,03,04,57,4.50
2009,04,03,04,58,4.50
2009,04,03,04,59,4.50
2009,04,03,05,00,4.50
2009,04,03,05,01,4.50
2009,04,03,05,02,4.50
2009,04,03,05,03,4.50
2009,04,03,05,04,4.50
2009,04,03,05,05,4.50
2009,04,03,05,06,4.50
2009,04,03,05,07,4.50
2009,04,03,05,08,4.50
2009,04,03,05,09,4.50
2009,04,03,05,10,4.50
2009,04,03,05,11,4.50
2009,04,03,05,12,4.50
2009,04,03,05,13,4.50
2009,04,03,05,14,4.50
2009,04,03,05,15,4.60
2009,04,03,05,16,4.60
2009,04,03,05,17,4.60
2009,04,03,05,18,4.60
2009,04,03,05,19,4.60
2009,04,03,05,20,4.60
2009,04,03,05,21,4.60
2009,04,03,05,22,4.60
2009,04,03,05,23,4.60
2009,04,03,05,24,4.60
2009,04,03,05,25,4.60
2009,04,03,05,26,4.60
2009,04,03,05,27,4.70
2009,04,03,05,28,4.70
2009,04,03,05,29,4.70
2009,04,03,05,30,4.70
2009,04,03,05,31,4.70
2009,04,03,05,32,4.70
2009,04,03,05,33,4.70
2009,04,03,05,34,4.70
2009,04,03,05,35,4.70
2009,04,03,05,36,4.70
2009,04,03,05,37,4.80
2009,04,03,05,38,4.80
2009,04,03,05,39,4.80
2009,04,03,05,40,4.80
2009,04,03,05,41,4.80
2009,04,03,05,42,4.80
2009,04,03,05,43,4.80
2009,04,03,05,44,4.80
2009,04,03,05,45,4.90
2009,04,03,05,46,4.90
2009,04,03,05,47,4.90
2009,04,03,05,48,4.90
2009,04,03,05,49,4.90
2009,04,03,05,50,4.90
2009,04,03,05,51,4.90
2009,04,03,05,52,4.90
2009,04,03,05,53,4.90
2009,04,03,05,54,4.90
2009,04,03,05,55,4.90
2009,04,03,05,56,4.90
2009,04,03,05,57,4.90
2009,04,03,05,58,4.90
2009,04,03,05,59,4.90
2009,04,03,06,00,4.90
2009,04,03,06,01,4.90
2009,04,03,06,02,4.90
2009,04,03,06,03,4.90
2009,04,03,06,04,4.90
2009,04,03,06,05,4.90
2009,04,03,06,06,4.90
2009,04,03,06,07,4.90
2009,04,03,06,08,4.90
2009,04,03,06,09,4.90
2009,04,03,06,10,4.90
2009,04,03,06,11,4.90
2009,04,03,06,12,4.90
2009,04,03,06,13,4.90
2009,04,03,06,14,4.90
2009,04,03,06,15,4.90
2009,04,03,06,16,4.90
2009,04,03,06,17,4.90
2009,04,03,06,18,4.90
2009,04,03,06,19,4.90
2009,04,03,06,20,4.90
2009,04,03,06,21,4.90
2009,04,03,06,22,4.90
2009,04,03,06,23,4.90
2009,04,03,06,24,4.90
2009,04,03,06,25,4.90
2009,04,03,06,26,4.90
2009,04,03,06,27,4.90
2009,04,03,06,28,4.90
2009,04,03,06,29,4.90
2009,04,03,06,30,4.90
2009,04,03,06,31,4.90
2009,04,03,06,32,4.90
2009,04,03,06,33,4.90
2009,04,03,06,34,4.90
2009,04,03,06,35,4.90
2009,04,03,06,36,4.90
2009,04,03,06,37,4.90
2009,04,03,06,38,4.90
2009,04,03,06,39,4.90
2009,04,03,06,40,4.90
2009,04,03,06,41,4.90
2009,04,03,06,42,4.90
2009,04,03,06,43,4.90
2009,04,03,06,44,4.90
2009,04,03,06,45,4.90
2009,04,03,06,46,4.90
2009,04,03,06,47,4.90
2009,04,03,06,48,4.90
2009,04,03,06,49,4.90
2009,04,03,06,50,4.90
2009,04,03,06,51,4.90
2009,04,03,06,52,4.90
2009,04,03,06,53,4.90
2009,04,03,06,54,4.90
2009,04,03,06,55,4.90
2009,04,03,06,56,4.90
2009,04,03,06,57,4.90
2009,04,03,06,58,4.90
2009,04,03,06,59,4.90
2009,04,03,07,00,4.90
2009,04,03,07,01,4.90
2009,04,03,07,02,4.90
2009,04,03,07,03,4.90
2009,04,03,07,04,4.90
2009,04,03,07,05,4.90
2009,04,03,07,06,4.90
2009,04,03,07,07,4.90
2009,04,03,07,08,4.90
2009,04,03,07,09,4.90
2009,04,03,07,10,4.90
2009,04,03,07,11,4.90
2009,04,03,07,12,4.90
2009,04,03,07,13,4.90
2009,04,03,07,14,4.90
2009,04,03,07,15,4.90
2009,04,03,07,16,4.90
2009,04,03,07,17,5.00
2009,04,03,07,18,5.00
2009,04,03,07,19,5.00
2009,04,03,07,20,5.00
2009,04,03,07,21,5.00
2009,04,03,07,22,5.00
2009,04,03,07,23,5.00
2009,04,03,07,24,5.00
2009,04,03,07,25,5.00
2009,04,03,07,26,5.00
2009,04,03,07,27,5.00
2009,04,03,07,28,5.00
2009,04,03,07,29,5.00
2009,04,03,07,30,5.00
2009,04,03,07,31,5.00
2009,04,03,07,32,5.00
2009,04,03,07,33,5.00
2009,04,03,07,34,5.00
2009,04,03,07,35,5.00
2009,04,03,07,36,5.00
2009,04,03,07,37,5.00
2009,04,03,07,38,5.00
2009,04,03,07,39,5.00
2009,04,03,07,40,5.00
2009,04,03,07,41,5.00
2009,04,03,07,42,5.00
2009,04,03,07,43,5.00
2009,04,03,07,44,5.00
2009,04,03,07,45,5.00
2009,04,03,07,46,5.00
2009,04,03,07,47,5.00
2009,04,03,07,48,5.00
2009,04,03,07,49,5.00
2009,04,03,07,50,5.00
2009,04,03,07,51,5.00
2009,04,03,07,52,5.00
2009,04,03,07,53,5.00
2009,04,03,07,54,5.00
2009,04,03,07,55,5.10
2009,04,03,07,56,5.10
2009,04,03,07,57,5.10
2009,04,03,07,58,5.10
2009,04,03,07,59,5.10
2009,04,03,08,00,5.10
2009,04,03,08,01,5.10
2009,04,03,08,02,5.10
2009,04,03,08,03,5.10
2009,04,03,08,04,5.10
2009,04,03,08,05,5.10
2009,04,03,08,06,5.10
2009,04,03,08,07,5.10
2009,04,03,08,08,5.10
2009,04,03,08,09,5.10
2009,04,03,08,10,5.10
2009,04,03,08,11,5.10
2009,04,03,08,12,5.10
2009,04,03,08,13,5.10
2009,04,03,08,14,5.10
2009,04,03,08,15,5.10
2009,04,03,08,16,5.10
2009,04,03,08,17,5.10
2009,04,03,08,18,5.10
2009,04,03,08,19,5.20
2009,04,03,08,20,5.20
2009,04,03,08,21,5.20
2009,04,03,08,22,5.20
2009,04,03,08,23,5.20
2009,04,03,08,24,5.20
2009,04,03,08,25,5.20
2009,04,03,08,26,5.20
2009,04,03,08,27,5.20
2009,04,03,08,28,5.20
2009,04,03,08,29,5.20
2009,04,03,08,30,5.20
2009,04,03,08,31,5.20
2009,04,03,08,32,5.20
2009,04,03,08,33,5.20
2009,04,03,08,34,5.20
2009,04,03,08,35,5.30
2009,04,03,08,36,5.30
2009,04,03,08,37,5.30
2009,04,03,08,38,5.30
2009,04,03,08,39,5.30
2009,04,03,08,40,5.30
2009,04,03,08,41,5.30
2009,04,03,08,42,5.30
2009,04,03,08,43,5.30
2009,04,03,08,44,5.30
2009,04,03,08,45,5.30
2009,04,03,08,46,5.30
2009,04,03,08,47,5.30
2009,04,03,08,48,5.30
